カタログに戻る

ARIANE 44LP DEB

運用中GTO
NORAD 44573·DEBRIS·🇫🇷 France

打ち上げ Sep 10, 1992 から Guiana Space Centre

Loading…

TLE

古いSource: Space-Track

元期: Sep 10, 2026, 06:25 UTC

1 44573U 92060J   26253.26754765 -.00000327  00000-0 -21950-2 0  9993
2 44573   7.1418 299.7814 7168343  97.2551 328.9603  2.23367694101439

AllMySatでARIANE 44LP DEBをリアルタイム追跡

Download on the App Store